Location: ???????
(55.4362°N, 38.1183°E)
Time: 03:20:13
(UTC+00:00)

Cosmos 1626 Rocket - Pass Details

Date: 17 June 2021
Orbit: 602 x 632 km, 82.5° (Epoch: 26 July)

Event Time Altitude Azimuth Distance (km) Brightness Sun altitude
Exits shadow 21:22:51 16° 181° (S) 1,651 5.1 -11.2°
Maximum altitude 21:26:23 72° 99° (E) 665 3.7 -11.2°
Drops below altitude 10° 21:30:50 10° 15° (NNE) 2,011 7.6 -11.2°
Sets 21:33:04 0° 14° (NNE) 2,918 8.8 -11.2°
